TimeEDT,TemperatureF,Dew PointF,Humidity,Sea Level PressureIn,VisibilityMPH,Wind Direction,Wind SpeedMPH,Gust SpeedMPH,PrecipitationIn,Events,Conditions,WindDirDegrees,DateUTC
12:53 AM,57.0,46.0,67,29.96,10.0,Calm,Calm,-,N/A,,Scattered Clouds,0,2013-04-09 04:53:00
1:53 AM,55.9,48.0,75,29.94,10.0,Calm,Calm,-,0.00,Rain,Light Rain,0,2013-04-09 05:53:00
2:53 AM,57.0,48.9,74,29.91,10.0,Calm,Calm,-,0.00,,Clear,0,2013-04-09 06:53:00
3:53 AM,54.0,48.9,83,29.91,10.0,Calm,Calm,-,N/A,,Clear,0,2013-04-09 07:53:00
4:53 AM,52.0,48.0,86,29.92,10.0,Calm,Calm,-,N/A,,Clear,0,2013-04-09 08:53:00
5:53 AM,53.1,48.0,83,29.93,10.0,SW,3.5,-,N/A,,Partly Cloudy,220,2013-04-09 09:53:00
6:53 AM,57.0,48.0,72,29.95,10.0,SW,9.2,-,N/A,,Clear,220,2013-04-09 10:53:00
7:53 AM,59.0,48.9,69,29.94,10.0,SW,10.4,-,N/A,,Clear,220,2013-04-09 11:53:00
8:53 AM,68.0,48.9,50,29.93,10.0,SSW,10.4,20.7,N/A,,Clear,210,2013-04-09 12:53:00
9:53 AM,72.0,45.0,38,29.94,10.0,West,16.1,27.6,0.00,,Clear,280,2013-04-09 13:53:00
10:53 AM,73.0,43.0,34,29.96,10.0,West,13.8,23.0,0.00,Rain,Light Rain,260,2013-04-09 14:53:00
11:53 AM,75.0,37.9,26,29.98,10.0,WNW,12.7,19.6,0.00,Rain,Light Rain,290,2013-04-09 15:53:00
12:53 PM,75.0,37.0,25,29.98,10.0,West,6.9,21.9,0.00,Rain,Light Rain,280,2013-04-09 16:53:00
1:53 PM,75.9,36.0,23,29.98,10.0,WNW,12.7,17.3,0.00,Rain,Light Rain,300,2013-04-09 17:53:00
2:53 PM,77.0,36.0,23,29.97,10.0,WNW,11.5,18.4,0.00,Rain,Light Rain,290,2013-04-09 18:53:00
3:53 PM,78.1,35.1,21,29.96,10.0,Variable,4.6,-,0.00,Rain,Light Rain,0,2013-04-09 19:53:00
4:53 PM,78.1,33.1,19,29.95,10.0,NNW,8.1,-,0.00,Rain,Light Rain,340,2013-04-09 20:53:00
5:53 PM,78.1,33.1,19,29.95,10.0,Variable,4.6,-,0.00,Rain,Light Rain,0,2013-04-09 21:53:00
6:53 PM,75.0,34.0,22,29.95,10.0,Calm,Calm,-,0.00,Rain,Light Rain,0,2013-04-09 22:53:00
7:53 PM,64.0,37.9,38,29.96,10.0,Calm,Calm,-,0.00,,Clear,0,2013-04-09 23:53:00
8:53 PM,60.1,39.0,46,29.98,10.0,Calm,Calm,-,N/A,,Clear,0,2013-04-10 00:53:00
9:53 PM,55.9,42.1,60,29.96,10.0,Calm,Calm,-,0.00,Rain,Light Rain,0,2013-04-10 01:53:00
10:53 PM,55.0,42.1,62,29.92,10.0,Calm,Calm,-,0.00,,Clear,0,2013-04-10 02:53:00
11:53 PM,55.0,42.1,62,29.91,10.0,Calm,Calm,-,0.00,,Mostly Cloudy,0,2013-04-10 03:53:00